BEIDOU-3 M26

Last updated on Fri Oct 04 2024 00:03:14 GMT+0000 (Coordinated Universal Time)

1 58655U 23207B 24276.23117320 .00000010 00000+0 00000+0 0 9992 2 58655 55.2032 83.4034 0001984 214.6797 145.3373 1.86231820 5224

Satellite not in orbit

BEIDOU-3 M26